Regional Weather Roundup
Issued by NWS

Home | Current Version | Previous Version | Graphics & Text | Print | Product List | Glossary On
Versions: 1 2 3 4 5 6 7 8 9 10 11 12 13 14 15 16 17 18 19 20 21 22 23 24 25 26 27
000
ASUS45 KBOU 020307
RWRCO

WEATHER ROUNDUP FOR COLORADO
NATIONAL WEATHER SERVICE DENVER/BOULDER CO
800 PM MST THU DEC 01 2016

NOTE: "FAIR" INDICATES FEW OR NO CLOUDS BELOW 12000 FEET WITH NO
SIGNIFICANT WEATHER AND/OR OBSTRUCTIONS TO VISIBILITY.

COZ001>005-013-030-031-020400-
...NORTHWEST COLORADO...

CITY           SKY/WX    TMP DP  RH WIND       PRES   REMARKS
CRAIG          LGT SNOW  25  21  85 CALM      30.02R FOG
HAYDEN         FAIR      21  18  86 CALM      30.00S
MEEKER         LGT SNOW  23  21  92 CALM      30.00S FOG
MOUNT WERNER   NOT AVBL
STEAMBOAT SPGS CLOUDY    21  19  93 CALM      29.99S
WALDEN           N/A     18  12  79 E3        29.96S
$$

COZ006>008-011-020400-
...WEST CENTRAL VALLEYS...

CITY           SKY/WX    TMP DP  RH WIND       PRES   REMARKS
GRAND JUNCTION CLOUDY    29  22  75 CALM      30.01R
MONTROSE       CLOUDY    28  18  66 S7        30.02S WCI  21
EAGLE          CLOUDY    27  18  69 CALM      30.01R
RIFLE          CLOUDY    29  23  78 SE3       30.02R
DELTA          CLOUDY    33  19  58 CALM      30.02R
NUCLA          CLOUDY    32  18  55 CALM      30.01S
$$

COZ017>023-064>068-020400-
...SOUTHWEST COLORADO...

CITY           SKY/WX    TMP DP  RH WIND       PRES   REMARKS
DURANGO        CLOUDY    24  16  71 N3        29.97R
CORTEZ         CLOUDY    23  17  78 NE7       29.97S WCI  15
PAGOSA SPRINGS FAIR      16  11  80 CALM      29.97S
TELLURIDE      CLOUDY    21  12  69 CALM      29.95S
WOLF CREEK PAS FAIR       9   9 100 SW8       29.97S FOG     WCI  -4
$$

COZ009-010-012-014-032>034-037-058>063-020400-
...CENTRAL COLORADO...

CITY           SKY/WX    TMP DP  RH WIND       PRES   REMARKS
ASPEN          LGT SNOW  20  17  88 CALM      29.96R FOG
BUENA VISTA    CLOUDY    23   8  51 SE3       29.94R
COPPER MTN     FAIR      12   5  73 MISG      29.89R
BERTHOUD PASS  CLOUDY     5  -6  61 NW6       29.86S WCI  -6
COTTONWOOD PAS MOCLDY    23   9  54 W6        29.91S WCI  16
GUNNISON       FAIR      16  10  77 N3        29.97R
KREMMLING      LGT SNOW  25  21  86 CALM      29.99S
LEADVILLE      CLOUDY    11   7  84 N6        29.90R WCI   1
MONARCH PASS     N/A      9   5  85 SW17      29.99S WCI -10
SALIDA         CLOUDY    28   5  36 SW6       30.02R WCI  22
SUNLIGHT       CLOUDY   N/A N/A N/A SW6       29.95S HAZE
WILKERSON PASS CLOUDY    16   5  62 SW3       29.93R
$$

COZ069>075-020400-
...SAN LUIS VALLEY/SANGRE DE CRISTO MOUNTAINS...

CITY           SKY/WX    TMP DP  RH WIND       PRES   REMARKS
ALAMOSA        CLOUDY    18  10  71 CALM      29.96R
LA VETA PASS   CLOUDY    18   9  68 NE17      29.93S WCI   2
SAGUACHE       CLOUDY    21  10  63 NW6       29.97S WCI  14
$$

COZ035-036-038>040-020400-
...NORTHERN COLORADO FRONT RANGE...

CITY           SKY/WX    TMP DP  RH WIND       PRES   REMARKS
DENVER INTL AP MOCLDY    27   9  46 E9        29.97R WCI  18
DMNS CITY PARK   N/A     29   8  40 N3        29.98R
AURORA         MOCLDY    24   8  50 SE10      29.97R WCI  13
FRONT RANGE AP MOCLDY    28  10  47 SE7       29.98R WCI  21
ERIE MUNI ARPT CLOUDY    28  10  47 CALM      29.99R
BOULDER MUN AP FAIR      32   9  37 CALM      29.99R
CENTENNIAL     MOCLDY    28   8  43 S6        29.95R WCI  22
BROOMFIELD     PTCLDY    30   7  37 NW5       29.98R WCI  25
FORT COLLINS   FAIR      30  12  47 CALM      30.00R
LONGMONT       MOCLDY    30  12  47 W5        30.01R WCI  25
$$

COZ041-046-047-076>085-087-088-020400-
...PIKES PEAK/PALMER DIVIDE AND SOUTHERN FOOTHILLS...

CITY           SKY/WX    TMP DP  RH WIND       PRES   REMARKS
COLO. SPRINGS  FAIR      19   0  43 NE5       29.98R WCI  12
A. F. ACADEMY  FAIR      20   4  48 N3        29.96R
SCHRIEVER AFB  NOT AVBL
ELLICOTT       FAIR     N/A N/A N/A CALM      29.96R
FALCON         FAIR      20   3  47 SW3       29.97R
FORT CARSON    FAIR      24   4  42 CALM      29.97R
LIMON          FAIR       9   3  77 N8        29.99R WCI  -3
MONUMENT HILL  CLOUDY    19   7  58 S8        29.96R WCI   9
TRINIDAD       FAIR      25   5  42 NW8       29.97R WCI  16
$$

COZ042>045-048>051-090-091-020400-
...NORTHEAST COLORADO...

CITY           SKY/WX    TMP DP  RH WIND       PRES   REMARKS
GREELEY ARPT   FAIR      28  11  48 NE6       30.01R WCI  22
AKRON          FAIR      27  12  53 NW5       29.99R WCI  22
BURLINGTON     FAIR      20   6  55 SW8       30.00R WCI  10
WRAY           NOT AVBL
STERLING       FAIR      21  14  73 CALM      30.00R
HOLYOKE        FAIR      21  12  68 W5        30.01R WCI  15
FORT MORGAN    FAIR      26  13  58 N10       30.01R WCI  16
$$

COZ086-089-092>099-020400-
...SOUTHEAST COLORADO...

CITY           SKY/WX    TMP DP  RH WIND       PRES   REMARKS
PUEBLO         FAIR      21   9  59 CALM      29.99R
LA JUNTA       FAIR      27  14  58 N5        30.00R WCI  22
LAMAR          FAIR      24   9  52 CALM      30.00R
SPRINGFIELD      N/A     28   9  44 SE3       30.00R
$$




USA.gov is the U.S. government's official web portal to all federal, state and local government web resources and services.